Home   Weather   Tullahoma   Past weeks
Flag for USA

Past Weather in Tullahoma, Tennessee, USA — Yesterday and Last 2 Weeks

Now
73 °F

Sunny.


Feels Like: 68 °F
Forecast: 81 / 71 °F
Wind: 7 mph from South

Location: Deason

Current Time: Jul 22, 2019 at 7:08:08 am

Latest Report: Jul 22, 2019 at 6:35 am


Visibility: 10 mi

Pressure: 29.99 "Hg

Humidity: 100%

Dew Point: 73 °F

Location of TullahomaLocation

Past Weather in Tullahoma — Graph

°F

Tullahoma Temperature Yesterday

Maximum temperature yesterday: 86 °F (at 2:15 pm)
Minimum temperature yesterday: 73 °F (at 12:15 am)
Average temperature yesterday: 78 °F

High & Low Weather Summary for the Past Weeks

 TemperatureHumidityPressure
High91 °F (Jul 8, 4:35 pm)100% (Jul 7, 5:00 am)30.24 "Hg (Jul 7, 5:00 am)
Low68 °F (Jul 9, 6:00 am)38% (Jul 9, 4:40 pm)29.86 "Hg (Jul 11, 5:15 pm)
Average78 °F85%30.03 "Hg
* Reported Jul 7 5:00 am — Jul 22 5:55 am, Tullahoma. Weather by CustomWeather, © 2019

Note: Actual official high and low records may vary slightly from our data, if they occured in-between our weather recording intervals... More about our weather records

Advertising

Tullahoma Weather History for the Previous 24 Hours

Scroll right to see more
 ConditionsComfort  
Time TempWeatherWind HumidityBarometerVisibility
5:55 am
Mon, Jul 22
73 °FScattered clouds.3 mph94%29.98 "Hg10 mi
5:35 am73 °FOvercast.No wind94%29.97 "Hg10 mi
5:15 am73 °FMostly cloudy.No wind94%29.97 "Hg10 mi
4:55 am73 °FMostly cloudy.No wind94%29.97 "Hg10 mi
4:35 am73 °FPartly cloudy.3 mph94%29.97 "Hg10 mi
4:15 am73 °FClear.No wind94%29.96 "Hg10 mi
3:55 am73 °FClear.5 mph94%29.96 "Hg10 mi
3:35 am73 °FClear.5 mph94%29.96 "Hg10 mi
3:15 am73 °FClear.5 mph94%29.97 "Hg10 mi
2:55 am73 °FClear.5 mph94%29.97 "Hg10 mi
2:35 am73 °FClear.5 mph94%29.97 "Hg10 mi
2:15 am73 °FPartly cloudy.6 mph94%29.97 "Hg10 mi
1:55 am73 °FMostly cloudy.6 mph94%29.98 "Hg10 mi
1:35 am75 °FMostly cloudy.8 mph89%29.98 "Hg10 mi
1:15 am75 °FMostly cloudy.5 mph89%29.99 "Hg10 mi
12:55 am75 °FPartly cloudy.8 mph89%29.99 "Hg10 mi
12:35 am77 °FMostly cloudy.8 mph89%29.99 "Hg10 mi
12:15 am77 °FOvercast.10 mph94%30.00 "Hg10 mi
11:55 pm
Sun, Jul 21
75 °FMostly cloudy.3 mph94%30.00 "Hg10 mi
11:35 pm75 °FPassing clouds.No wind94%30.00 "Hg10 mi
11:15 pm75 °FClear.No wind94%29.99 "Hg10 mi
10:55 pm75 °FClear.No wind94%29.99 "Hg10 mi
10:35 pm75 °FPassing clouds.No wind94%29.99 "Hg10 mi
10:15 pm75 °FClear.No wind94%29.99 "Hg10 mi
9:55 pm77 °FClear.5 mph89%29.99 "Hg10 mi
9:35 pm77 °FClear.No wind89%29.99 "Hg10 mi
8:55 pm75 °FClear.5 mph94%29.98 "Hg10 mi
8:15 pm77 °FClear.5 mph83%29.97 "Hg10 mi
7:55 pm79 °FSunny.3 mph79%29.97 "Hg10 mi
7:15 pm81 °FSunny.5 mph74%29.97 "Hg10 mi
6:55 pm81 °FPassing clouds.7 mph74%29.97 "Hg10 mi
6:35 pm84 °FPassing clouds.9 mph70%29.97 "Hg10 mi
6:15 pm86 °FSunny.7 mph66%29.97 "Hg10 mi
5:55 pm86 °FPassing clouds.8 mph70%29.97 "Hg10 mi
5:35 pm86 °FPassing clouds.9 mph70%29.97 "Hg10 mi
5:15 pm86 °FSunny.7 mph70%29.97 "Hg10 mi
4:55 pm86 °FPassing clouds.8 mph70%29.98 "Hg10 mi
4:35 pm86 °FScattered clouds.6 mph70%29.98 "Hg9 mi
4:15 pm86 °FScattered clouds.8 mph66%29.98 "Hg10 mi
3:55 pm84 °FMostly cloudy.No wind74%29.99 "Hg10 mi
3:35 pm86 °FBroken clouds.5 mph70%29.99 "Hg10 mi
3:15 pm86 °FScattered clouds.8 mph66%30.00 "Hg10 mi
2:55 pm86 °FScattered clouds.6 mph70%30.00 "Hg10 mi
2:35 pm86 °FScattered clouds.5 mph70%30.01 "Hg10 mi
2:15 pm86 °FBroken clouds.3 mph70%30.01 "Hg10 mi
1:55 pm84 °FBroken clouds.5 mph74%30.02 "Hg10 mi
1:35 pm84 °FBroken clouds.6 mph74%30.03 "Hg10 mi
1:15 pm82 °FBroken clouds.3 mph79%30.04 "Hg10 mi
12:55 pm81 °FBroken clouds.5 mph84%30.04 "Hg10 mi
12:35 pm81 °FMostly cloudy.6 mph84%30.05 "Hg10 mi
12:15 pm81 °FOvercast.6 mph79%30.06 "Hg10 mi
11:55 am79 °FOvercast.7 mph84%30.05 "Hg10 mi
11:35 am79 °FMostly cloudy.8 mph89%30.06 "Hg9 mi
11:15 am77 °FOvercast.10 mph89%30.07 "Hg10 mi
10:55 am77 °FOvercast.8 mph89%30.07 "Hg10 mi
10:35 am77 °FOvercast.7 mph89%30.06 "Hg10 mi
10:15 am77 °FOvercast.7 mph89%30.06 "Hg10 mi
9:55 am77 °FOvercast.9 mph89%30.06 "Hg10 mi
9:35 am75 °FOvercast.8 mph94%30.06 "Hg10 mi
9:15 am77 °FMostly cloudy.9 mph89%30.06 "Hg10 mi
7:55 am77 °FPartly sunny.8 mph89%30.05 "Hg10 mi
7:35 am75 °FBroken clouds.7 mph94%30.05 "Hg10 mi
7:15 am77 °FPartly sunny.6 mph89%30.04 "Hg10 mi
Weather by CustomWeather, © 2019

See weather overview